Regional Weather Roundup
Issued by NWS

Home | Current Version | Previous Version | Text Only | Print | Product List | Glossary Off
Versions: 1 2 3 4 5 6 7 8 9 10 11 12 13 14 15 16 17 18 19 20 21 22 23 24 25 26 27 28 29 30 31 32 33 34 35 36 37 38 39 40 41 42 43 44 45 46 47 48 49 50

000
ASUS43 KMKX 280521
RWRWI

WISCONSIN REGIONAL WEATHER ROUNDUP
NATIONAL WEATHER SERVICE MILWAUKEE/SULLIVAN WI
1200 AM CDT TUE JUL 28 2015

NOTE: "FAIR" INDICATES FEW OR NO CLOUDS BELOW 12,000 FEET WITH NO
SIGNIFICANT WEATHER AND/OR OBSTRUCTIONS TO VISIBILITY.

WIZ001-002-006>008-014>016-023>028-280600-
NORTHWEST WISCONSIN

CITY           SKY/WX    TMP DP  RH WIND       PRES   REMARKS
SUPERIOR ARPT  CLEAR     68  67  97 CALM      29.93F
ASHLAND        CLEAR     63  63 100 CALM      29.97S
HAYWARD        CLEAR     73  64  73 SE6       29.98S
SIREN          CLEAR     73  67  80 SE3       29.94F
CUMBERLAND     CLEAR     70  64  83 CALM      29.97S
RICE LAKE      CLEAR     73  67  83 SE6       29.98S
CHETEK         CLEAR     72  69  89 E3        29.97S
LADYSMITH      CLEAR     71  65  80 E5        30.02R
EAU CLAIRE     CLEAR     75  67  76 SE7       29.95S
MENOMONIE      CLEAR     72  69  92 SE3       29.96S
NEW RICHMOND   CLEAR     72  70  92 SE5       29.94F
OSCEOLA        CLEAR     74  71  88 SE5       29.96S
$$

WIZ003>005-009-010-017-018-280600-
NORTH CENTRAL WISCONSIN

CITY           SKY/WX    TMP DP  RH WIND       PRES   REMARKS
MANITOWISH WTR CLEAR     66  64  92 S3        30.04R
ARBOR VITAE    CLEAR     72  64  77 S3        30.04S
WOODRUFF       CLEAR     72  64  77 S3        30.04S
RHINELANDER    CLEAR     70  61  73 SE5       30.05S
EAGLE RIVER    CLEAR     67  60  79 CALM      30.04S
LAND O LAKES   CLEAR     61  58  92 CALM      30.05S
PHILLIPS       CLEAR     69  64  81 SE3       30.02S
TOMAHAWK       CLEAR     65  61  88 CALM      30.04S
MEDFORD        CLEAR     68  63  84 SE5       30.03R
MERRILL        NOT AVBL
$$

WIZ029-030-035-036-043>047-280600-
CENTRAL WISCONSIN

CITY           SKY/WX    TMP DP  RH WIND       PRES   REMARKS
WAUSAU         CLEAR     70  64  81 E6        30.01S
MOSINEE        CLEAR     66  63  88 E5        30.04R
MARSHFIELD     CLEAR     71  61  70 S7        30.02R
STEVENS POINT  CLEAR     65  62  87 CALM      30.03S
WAUPACA        CLEAR     68  67  98 CALM      30.01F
WAUTOMA        CLEAR     67  64  90 CALM      30.02S
WISC RAPIDS    CLEAR     72  61  68 SE5       30.02S
CAMP DOUGLAS   CLEAR     64  64 100 SE5       30.00R
$$

WIZ011>013-019>022-031-037>040-048>050-280600-
NORTHEAST WISCONSIN

CITY           SKY/WX    TMP DP  RH WIND       PRES   REMARKS
ANTIGO         CLEAR     62  60  93 CALM      30.05F
SHAWANO        CLEAR     73  64  73 S3        30.03S
OCONTO         PTCLDY    62  62 100 CALM      30.02S
STURGEON BAY   CLEAR     70  59  68 SE3       30.06S
GREEN BAY      CLEAR     63  61  93 CALM      30.03R
MANITOWOC      CLEAR     64  63  94 MISG      30.04R FOG
APPLETON       CLEAR     72  61  68 CALM      30.03F
CLINTONVILLE   CLEAR     64  63  94 CALM      30.02S
OSHKOSH        CLEAR     67  60  78 CALM      30.02S
$$

WIZ032>034-041-042-053>061-280600-
SOUTHWEST WISCONSIN

CITY           SKY/WX    TMP DP  RH WIND       PRES   REMARKS
LA CROSSE      CLEAR     73  69  87 E5        29.96R
SPARTA         CLEAR     70  67  89 E6        29.99R
VIROQUA        CLEAR     71  71 100 SE5       30.00R
BOSCOBEL       PTCLDY    73  69  87 VRB3      29.97F
PRAIRIE DU CHI PTCLDY    74  69  83 E3        29.96R
PLATTEVILLE    PTCLDY    73  68  87 E7        29.98F
$$

WIZ056-057-062-063-064-067-068-280600-
SOUTH CENTRAL WISCONSIN

CITY           SKY/WX    TMP DP  RH WIND       PRES   REMARKS
REEDSBURG      CLEAR     71  65  83 CALM      30.00S
BARABOO/DELLS  CLEAR     72  62  71 SE5       30.01S
LONE ROCK      CLEAR     71  65  81 CALM      29.99F
MINERAL POINT  CLEAR     72  64  78 SE6       30.00F
MADISON        CLEAR     73  63  70 SE7       30.00F
MIDDLETON      CLEAR     72  63  72 SE3       30.01F
WATERTOWN      CLEAR     66  64  94 CALM      30.01F
MONROE         CLEAR     70  63  78 E6        30.00F
JANESVILLE     PTCLDY    68  64  88 CALM      30.00S
$$

WIZ051-052-058>065-066-070>072-280600-
SOUTHEAST WISCONSIN

CITY           SKY/WX    TMP DP  RH WIND       PRES   REMARKS
MILWAUKEE      MOCLDY    71  65  81 SE3       30.01F
WAUKESHA       PTCLDY    64  59  82 CALM      30.03F
MILWAUKEE/TIMM CLEAR     66  61  82 CALM      30.03S
RACINE         PTCLDY    71  63  75 CALM      30.03F
BURLINGTON     PTCLDY    62  61  96 CALM      30.02F
KENOSHA        PTCLDY    67  64  90 CALM      30.02F
FOND DU LAC    CLEAR     66  62  87 W3        30.03R
SHEBOYGAN      CLEAR     60  58  92 CALM      30.03S
WEST BEND      CLEAR     61  59  94 CALM      30.03S
JUNEAU           N/A     64  62  93 E3        30.03F
$$

LSZ147-162-280600-
LAKE SUPERIOR

STATION/POSITION TIME  TEMP    WIND        PRES    WAVE
                       AIR SEA DIR/SP/G            HT/PER
                 (UTC) (F)     (DEG/KT/KT) (MB)    (FT/S)
W MID LAKE BUOY  0450   64 62  120/  4/  6 1014.3R   0
DEVILS ISLAND    0500   76     180/  8/  9 1014.1R
PORT WING        0440   76     160/  4/  7 1013.9S
SAXON HARBOR     0440   68                 1014.2S
$$

LMZ867-665-643>646-280600-
LAKE MICHIGAN

STATION/POSITION TIME  TEMP    WIND        PRES    WAVE
                       AIR SEA DIR/SP/G            HT/PER
                 (UTC) (F)     (DEG/KT/KT) (MB)    (FT/S)
CHAMBERS ISLAND  0400   68     160/  1/  2 1016.3R
S GREEN BAY BUOY 0330   78 76  180/  8/ 10 1017.6R
N MID LAKE BUOY  0450   70 69  170/  6/  6 1016.3F   0
NORTHPORT PIER   0400   70     220/  3/  5 1016.3S
SISTER BAY       0444   74     170/  6/  8   N/A
ALGOMA LAKESHORE 0412             CALM       N/A
KEWAUNEE LAKESHO 0500   65      CALM  /  3 1016.5R
SHEBOYGAN LAKESH 0500   71     180/  3/  3 1017.0R
PORT WASHINGTON  0400   71      CALM  /  2 1017.3R
ATWATER BUOY     0500   72     130/  4/  6 1017.8F
MILWAUKEE LAKESH 0500   71     310/  1/  1   N/A
KENOSHA   LAKESH 0500   73     100/  3/  4 1015.9F
$$

TC  - TEMPERATURE IN CELSIUS
VSB - VISIBILITY IN STATUTE MILES
WCI - WIND CHILL INDEX
HX  - HEAT INDEX




USA.gov is the U.S. government's official web portal to all federal, state and local government web resources and services.